Theta_e
303 303 303 305 306 307 307 307 307 308 310 310 308 308 310 311 306 303 316 320 313 318 323 326 329 330 329 329 330 332 334 335 337 337 337 337 338 341 342 343 343 343 345 347 348 349 350 352 352 354 353 353 355 355 355 358 359 359 360 362 362 363 363 363 364 364 364 365 364 365 365 365 364 361 359 359 360 360 361 357 352 352 353 351 352 354 357
303 304 305 306 306 306 307 308 309 311 310 310 310 310 311 311 314 313 315 319 315 323 325 327 330 332 330 331 334 334 333 333 335 335 335 335 337 339 341 342 344 343 344 345 346 348 350 348 350 350 351 352 351 352 353 354 357 359 359 359 360 359 361 362 364 364 362 362 362 364 363 363 363 364 362 362 360 361 360 360 359 359 358 356 354 353 355
301 303 305 306 306 306 306 308 309 309 311 312 314 314 315 315 312 313 313 316 321 328 331 330 332 332 332 332 332 331 332 333 333 334 334 336 336 338 340 341 342 344 345 345 345 346 347 348 350 350 350 351 351 352 353 354 355 357 359 358 359 359 358 359 359 361 360 359 361 362 362 363 363 362 363 362 362 362 362 362 362 364 363 359 356 352 353
300 303 303 304 305 306 306 306 307 308 309 311 313 312 318 314 313 316 315 315 317 327 330 331 331 330 330 330 331 331 332 332 333 333 335 335 336 338 337 338 341 344 343 342 344 345 346 348 346 346 347 348 348 349 350 352 352 354 356 356 356 355 354 355 355 355 357 358 357 358 361 361 361 362 362 362 362 363 361 360 362 360 360 361 361 359 355
300 302 303 302 303 303 301 303 306 308 309 312 314 317 319 319 319 315 311 314 328 328 330 328 328 328 329 329 330 331 333 334 334 334 333 333 335 337 337 336 338 338 340 341 343 345 345 343 344 345 346 346 348 348 351 352 353 353 353 353 354 353 352 352 352 353 354 355 354 355 357 358 359 360 360 359 359 360 361 363 361 360 361 359 360 361 360
299 301 302 303 300 295 297 306 311 312 309 310 311 313 318 320 322 320 322 326 330 329 328 327 327 327 329 330 332 334 334 335 334 332 332 333 334 335 335 334 333 334 334 334 336 335 335 337 339 340 341 342 345 348 348 348 348 349 348 350 351 350 350 351 353 355 355 355 355 355 355 354 354 355 356 357 359 360 361 362 361 360 360 360 361 362 363
298 302 302 298 293 297 304 308 308 310 313 311 313 318 319 321 322 322 323 324 327 329 329 329 329 330 331 331 331 332 334 335 334 332 332 332 332 333 334 332 331 330 330 331 332 331 332 335 336 337 336 337 338 339 338 338 340 342 344 344 344 344 345 347 351 354 353 354 355 355 355 355 354 355 355 356 356 358 360 360 360 358 359 358 359 360 361
302 299 298 289 294 301 305 306 308 310 311 311 312 316 318 320 320 322 323 325 327 327 327 328 332 331 330 331 332 333 333 335 335 332 331 331 331 332 332 330 331 331 331 332 331 330 333 334 334 333 333 335 335 335 337 336 336 336 337 337 339 344 345 346 346 347 347 349 351 351 351 352 352 352 352 354 353 355 356 359 357 359 359 357 357 359 361
296 298 297 296 302 301 302 302 305 307 306 307 308 309 313 320 321 322 324 324 325 325 326 329 329 330 328 326 327 331 332 332 334 333 332 332 331 330 331 332 332 332 333 332 332 332 331 330 331 332 333 334 334 334 335 334 335 335 335 335 337 340 342 343 345 346 347 346 347 349 349 349 349 349 350 350 353 355 354 354 355 357 355 355 358 359 359
304 298 295 296 295 293 299 305 308 311 312 311 311 312 314 318 322 325 325 324 325 324 326 327 327 328 324 320 323 328 331 333 332 333 332 331 330 329 330 332 331 332 332 332 331 331 331 330 331 333 332 332 331 331 331 333 333 333 333 333 335 338 338 340 342 342 344 346 346 347 348 348 349 350 351 351 350 351 351 350 351 350 350 351 353 354 353
300 299 295 293 292 296 302 306 309 311 312 312 312 311 307 313 321 326 325 324 324 325 325 326 327 323 318 318 322 327 330 331 331 329 329 328 328 327 328 328 326 325 328 330 330 332 330 329 331 334 334 333 330 329 329 330 332 331 331 332 334 337 338 340 341 342 344 345 346 346 348 349 349 348 348 347 349 350 347 345 344 346 347 348 347 346 344
301 300 295 293 300 300 307 309 309 311 312 311 310 301 302 311 313 323 325 324 324 325 327 326 325 322 319 320 323 327 328 330 329 329 327 326 325 325 326 327 329 329 329 329 328 328 329 331 331 332 332 331 331 329 329 329 329 330 331 333 334 336 338 340 340 342 344 345 347 347 346 348 348 348 348 348 348 348 346 345 342 345 345 345 343 343 343
299 299 299 301 301 307 310 311 311 312 311 309 301 295 307 313 316 319 327 327 327 327 326 326 323 325 328 328 329 330 329 328 329 331 329 327 326 326 327 328 332 329 328 328 327 328 329 330 329 330 330 329 329 329 328 328 327 329 333 334 334 334 335 336 338 339 339 342 341 342 344 345 345 345 345 345 344 344 342 343 342 342 340 340 339 338 341
298 299 296 298 303 308 312 314 313 315 310 302 297 308 315 315 316 321 327 328 328 328 328 328 329 328 329 329 329 329 330 330 330 330 329 328 328 330 331 331 329 327 326 326 326 326 328 328 328 329 329 328 328 329 328 326 328 330 331 332 334 336 336 335 335 337 337 338 339 336 338 340 340 341 343 344 344 342 341 342 342 340 338 336 334 334 336
300 299 296 295 290 307 313 313 314 315 307 307 311 313 315 317 318 320 325 327 330 329 328 330 329 327 326 327 327 329 330 329 329 329 329 329 328 328 328 328 327 326 324 323 323 324 324 324 325 326 327 326 326 327 326 327 329 330 331 331 332 334 335 335 336 337 340 339 338 338 338 337 337 336 338 341 342 343 341 341 340 338 337 336 334 332 334
297 296 294 294 305 310 314 312 306 310 312 313 315 314 314 316 321 324 325 328 330 330 330 327 327 326 326 326 327 329 329 328 328 329 330 330 330 329 328 327 327 327 325 325 324 326 326 328 327 327 327 325 325 324 324 327 328 329 330 330 331 332 333 333 334 334 334 336 339 340 339 339 338 338 337 337 338 338 339 338 336 336 334 335 334 333 332
304 301 304 310 313 314 314 313 313 314 316 316 316 316 316 317 319 323 326 326 327 329 331 328 326 326 326 326 327 326 327 328 329 330 330 330 330 328 328 327 328 327 325 325 324 325 326 328 328 329 328 326 325 324 325 327 326 326 327 329 330 329 329 330 332 333 335 335 336 336 336 336 336 335 336 336 335 337 338 335 335 334 333 333 332 332 332
312 313 313 314 314 314 314 315 316 316 317 318 318 318 317 319 321 324 324 326 326 328 330 327 326 326 327 324 324 324 325 326 328 328 328 328 328 328 327 327 327 326 325 325 324 323 324 326 326 328 326 327 326 326 327 328 327 325 325 325 326 326 327 329 329 331 330 330 332 334 333 333 333 333 333 332 332 333 334 333 334 333 331 331 330 332 330
305 299 314 312 313 314 315 315 316 318 318 317 318 318 319 320 322 324 325 326 327 328 329 327 324 324 325 324 324 325 325 323 325 326 326 326 326 325 326 326 326 325 324 322 323 323 322 324 324 324 325 325 326 328 328 326 327 328 327 325 325 325 325 325 327 331 330 329 329 330 331 330 329 330 331 331 332 331 331 330 330 329 329 329 329 328 329
305 306 311 313 314 315 315 315 315 315 316 316 317 318 320 322 323 323 324 325 325 327 326 326 324 324 326 323 321 322 324 324 323 323 324 324 325 326 326 325 325 324 323 323 324 324 323 325 325 325 326 326 327 327 325 327 327 328 326 325 324 324 324 324 326 326 327 325 329 329 330 330 328 328 329 330 330 330 330 330 330 327 327 327 326 328 328
307 312 313 314 315 314 315 316 317 318 317 316 316 317 318 320 321 322 323 324 325 325 326 325 322 320 321 322 322 321 322 323 324 324 324 324 324 324 324 324 324 324 324 324 324 323 322 323 323 323 322 322 324 326 326 327 328 327 325 324 325 323 324 325 325 327 326 326 327 329 328 332 329 333 331 328 328 328 330 331 329 329 329 328 327 327 328
304 308 311 314 308 309 312 314 316 317 319 318 317 317 317 316 318 320 320 321 324 324 324 324 322 320 320 320 321 320 321 322 322 322 321 322 322 324 325 325 326 325 325 325 323 322 321 322 322 322 323 324 325 324 327 328 328 327 326 326 325 324 326 326 326 325 326 326 328 328 328 327 328 329 319 308 316 331 327 321 306 300 307 325 325 331 329
304 310 315 316 315 313 314 316 318 318 319 319 318 317 316 317 317 318 318 319 320 320 323 324 323 324 323 322 322 320 319 321 322 322 320 320 320 321 322 322 323 323 324 325 325 323 322 322 321 321 322 323 324 325 327 327 327 326 326 325 324 324 325 325 325 326 325 326 327 329 329 327 328 327 326 328 301 298 310 311 303 295 294 295 299 305 323
314 316 315 317 317 314 315 317 318 319 320 319 318 318 319 319 318 318 318 318 317 318 319 321 324 325 326 325 324 322 323 323 322 321 321 322 321 320 320 320 320 321 322 323 323 323 323 322 322 323 323 323 324 324 325 326 326 326 325 324 323 323 323 323 323 326 325 326 326 326 325 325 326 325 324 325 325 306 298 303 301 296 295 295 295 298 299
313 317 318 318 318 317 318 318 319 319 320 320 318 318 318 320 320 320 318 318 318 318 318 318 319 323 325 323 324 325 324 323 322 321 320 320 320 319 319 318 319 321 321 323 324 323 322 322 322 322 322 322 323 323 324 323 323 323 323 323 323 323 323 323 322 323 323 324 324 324 323 322 323 324 323 322 321 323 320 300 297 297 297 296 295 297 298
318 318 319 318 318 317 318 318 318 318 319 319 319 319 320 319 319 320 320 320 319 318 318 317 317 319 322 323 322 322 323 323 322 322 320 319 319 319 318 318 320 322 322 323 324 323 322 323 322 322 321 321 323 322 320 321 322 322 321 320 319 320 321 322 322 322 321 322 322 322 323 322 322 322 322 323 322 321 323 322 321 311 298 296 297 299 296
319 319 318 315 313 315 316 316 315 317 318 319 318 319 319 320 320 321 321 321 320 321 319 318 318 318 320 321 322 322 322 322 323 321 320 319 318 318 318 319 321 322 323 323 323 322 322 323 322 322 321 321 323 322 322 322 322 321 320 320 319 317 317 319 320 319 319 320 320 322 322 322 321 320 321 321 322 320 319 319 320 321 321 322 306 304 318
318 318 318 312 311 313 315 317 317 318 318 318 318 318 318 319 320 319 318 320 321 322 320 321 320 319 319 320 320 319 320 321 321 322 321 320 319 319 320 321 321 322 323 324 323 323 323 323 322 322 321 322 322 322 320 320 321 321 321 321 319 319 317 317 318 318 318 320 320 320 320 320 321 320 320 320 318 319 318 319 319 319 319 320 323 310 303
316 316 317 317 317 317 317 318 317 315 315 316 317 318 317 315 316 317 317 317 318 319 320 321 321 321 320 319 319 319 319 319 319 320 321 323 322 320 320 321 322 322 323 323 323 324 322 322 322 321 321 322 321 321 320 320 320 320 319 319 319 318 318 318 318 318 317 318 319 320 317 318 319 319 319 318 318 317 319 318 318 319 318 320 322 323 315
315 316 315 315 315 316 315 313 313 312 312 313 312 312 313 312 310 314 316 317 317 317 318 319 321 320 321 321 320 319 318 318 319 321 321 322 323 324 322 323 323 322 321 321 322 323 322 322 321 321 321 321 320 321 319 320 320 321 320 319 319 318 318 318 318 317 316 316 316 313 316 315 317 317 317 317 317 317 316 316 317 316 316 317 318 317 317
315 315 315 314 314 313 312 312 312 312 312 312 311 310 311 311 310 311 313 315 316 316 317 318 318 319 320 320 321 321 321 319 320 320 321 322 323 324 323 323 320 319 319 320 322 323 322 322 321 321 322 322 321 320 320 319 319 319 318 318 318 312 310 309 311 316 315 315 314 314 314 314 315 315 315 315 315 315 314 314 315 315 315 315 316 316 316
313 313 313 313 312 311 310 311 309 309 310 311 310 310 310 310 309 309 310 312 314 315 316 317 317 317 318 319 320 322 321 321 321 321 321 321 322 323 323 322 322 321 322 322 322 323 322 321 321 322 322 321 321 321 320 320 319 317 317 316 317 314 311 309 312 311 312 314 314 314 314 313 314 314 314 314 315 315 315 314 313 314 314 313 314 315 316
311 310 310 310 309 308 307 308 306 306 308 308 308 309 311 311 311 310 310 312 313 314 315 315 316 317 318 318 318 318 319 321 321 320 318 319 320 320 320 320 321 321 321 322 323 323 321 320 320 322 322 322 321 320 320 319 319 317 317 316 316 316 314 309 311 313 312 312 312 313 313 312 312 312 312 313 314 314 314 313 313 312 313 313 313 314 314
312 311 311 312 308 307 306 307 309 309 309 310 310 310 310 310 310 311 311 312 312 312 313 314 316 317 317 316 316 317 317 317 316 317 318 319 319 320 320 319 319 320 321 323 323 322 321 321 322 321 320 321 321 320 319 319 317 317 317 316 315 314 313 313 310 311 312 312 312 313 311 311 310 310 313 311 312 312 311 311 311 311 311 311 312 313 306
316 314 312 310 311 309 310 308 307 307 307 307 308 309 310 311 311 311 312 311 311 312 314 315 316 315 316 315 315 315 314 314 314 315 317 318 319 320 321 320 320 319 320 321 322 322 323 323 322 320 320 319 318 318 318 317 317 316 316 316 315 314 314 312 312 311 311 311 311 311 310 310 310 310 310 311 311 311 310 310 310 309 309 310 310 311 311
313 312 311 311 311 311 310 310 309 310 309 310 310 310 309 310 311 311 311 312 313 314 314 314 314 314 314 314 313 313 313 313 314 316 317 318 319 320 319 318 317 316 317 318 321 321 321 320 320 319 318 316 315 316 316 316 315 314 315 313 313 313 312 311 311 310 310 310 309 309 309 309 309 310 310 310 310 310 309 308 308 308 308 308 308 309 309
312 311 311 310 310 311 311 310 311 310 310 310 310 310 310 311 311 312 312 312 312 312 312 313 312 312 312 313 313 314 314 314 314 314 316 317 320 320 318 316 316 315 315 312 315 319 321 322 317 317 315 315 313 313 314 313 312 312 312 310 310 311 310 309 310 309 309 310 308 309 308 308 308 308 308 308 307 308 307 306 306 307 307 306 306 307 306
312 311 310 310 310 310 311 311 312 312 311 311 311 310 310 310 310 311 311 311 312 312 313 312 311 311 312 313 312 312 312 313 313 314 316 317 318 318 319 317 315 315 313 314 318 318 318 317 315 315 315 314 312 312 311 312 310 309 307 307 308 308 308 308 308 308 308 308 308 307 307 306 306 306 306 305 306 305 305 305 305 305 305 305 305 305 305
310 311 311 311 311 311 311 311 311 311 310 309 308 309 309 309 310 310 309 310 311 312 311 311 311 311 310 310 309 310 311 312 312 312 313 314 318 316 315 317 317 317 317 318 317 316 316 315 316 315 314 313 313 312 311 310 308 308 308 307 307 306 307 308 307 306 306 307 306 305 306 305 305 305 304 304 304 304 304 303 303 303 303 303 303 303 304
310 310 310 310 309 310 309 309 308 308 309 309 308 307 308 308 308 308 309 309 310 311 311 311 310 308 308 309 308 308 309 310 311 312 312 312 313 314 315 316 318 318 319 316 317 315 315 312 313 313 312 311 310 309 309 308 307 307 307 306 305 305 306 305 305 304 304 305 304 303 304 304 304 304 304 303 304 303 302 302 302 301 302 302 302 302 302
310 310 310 309 309 309 308 307 307 308 308 308 308 308 308 308 308 307 307 307 309 310 311 310 309 308 308 308 308 308 309 309 310 311 311 312 311 310 309 309 315 316 317 317 317 315 312 312 313 311 310 310 309 308 309 307 306 306 306 305 305 305 305 305 305 304 304 304 304 304 304 304 303 302 302 302 302 302 302 301 301 301 301 300 301 301 300
310 310 309 309 308 308 307 307 307 306 307 307 307 308 309 309 309 308 309 309 309 309 310 310 310 310 310 310 310 310 310 311 312 312 314 312 309 308 307 310 315 316 316 315 314 312 311 312 311 310 309 309 308 307 307 307 305 304 305 305 306 306 306 306 304 304 305 304 303 303 303 302 302 302 301 301 300 300 301 302 301 301 301 300 299 299 300
310 309 309 308 308 307 307 307 306 306 306 306 307 307 308 309 308 309 308 309 308 308 309 309 309 309 309 309 309 308 309 311 313 314 315 316 316 315 313 314 316 316 313 314 313 312 311 311 308 307 307 307 307 306 305 304 303 303 304 305 306 305 305 304 304 304 303 303 302 303 303 302 302 301 300 300 301 301 301 301 300 300 300 300 301 300 300
309 309 309 308 307 307 307 306 306 306 305 306 307 307 307 307 308 308 307 307 307 307 307 308 309 310 310 311 309 308 308 309 309 311 311 312 314 316 317 316 315 314 311 313 312 311 310 308 306 305 306 305 304 303 302 302 302 303 304 304 304 304 303 303 303 303 302 303 302 302 302 302 301 301 302 300 300 301 300 300 301 300 300 300 300 299 300
309 309 308 307 307 307 306 306 305 305 306 307 307 307 307 307 308 308 307 307 307 307 308 308 309 310 310 309 308 308 309 311 312 310 308 308 308 311 315 313 314 313 312 312 311 309 307 305 305 305 305 304 303 303 302 303 302 304 304 304 304 303 303 303 302 302 302 302 302 302 303 301 302 301 301 300 299 299 299 299 300 299 299 299 299 299 299
309 309 308 305 306 306 306 307 308 308 307 306 306 306 307 308 308 308 308 308 307 308 309 309 310 310 309 308 308 309 310 312 311 312 312 311 309 311 313 311 312 311 309 307 308 305 305 305 305 304 304 303 303 303 302 302 303 303 304 304 304 303 302 302 303 302 302 302 301 301 301 301 301 301 301 301 300 300 300 299 298 299 299 299 299 298 298
308 308 308 307 307 307 307 307 307 307 307 306 305 305 306 307 307 307 307 308 309 309 310 310 310 310 311 311 310 310 309 310 312 313 313 313 314 313 311 310 310 307 307 306 305 305 306 304 304 304 304 303 303 304 303 303 304 304 304 304 303 303 303 303 303 303 302 302 302 302 301 301 300 301 300 299 299 299 299 299 298 299 299 299 298 298 298
307 307 306 307 306 307 307 306 306 305 304 304 305 306 306 306 306 306 307 308 309 309 309 309 310 310 311 312 313 313 312 309 307 308 310 310 312 313 310 309 308 307 306 305 304 304 304 304 303 303 304 303 305 309 305 303 303 303 304 304 304 303 303 302 302 302 302 302 301 303 302 302 301 301 300 300 300 300 299 299 299 299 299 298 298 298 298
308 307 307 307 307 306 305 305 305 306 305 306 306 306 307 306 307 306 307 308 308 309 308 308 309 310 312 312 313 313 314 313 311 307 310 310 310 309 308 307 306 306 306 305 302 303 303 302 302 303 303 302 304 303 303 303 303 303 303 303 303 303 303 303 302 302 302 302 301 301 301 300 300 300 300 300 300 300 299 299 299 299 299 299 299 299 299
307 307 307 306 306 306 305 305 305 305 306 306 306 306 307 307 306 306 307 307 307 307 307 307 307 309 310 311 311 311 310 310 310 310 310 310 308 307 308 307 305 304 304 306 305 305 303 303 303 304 304 305 304 304 304 303 303 303 303 304 303 303 304 303 303 302 302 302 301 301 301 300 300 300 300 300 300 299 299 299 299 299 297 298 298 299 299
307 306 306 307 307 308 307 306 307 307 306 306 307 307 308 308 306 307 307 306 306 305 305 305 305 306 306 307 308 309 309 309 308 308 308 308 308 307 307 307 306 305 305 304 304 304 304 305 305 305 304 304 304 304 304 304 303 303 303 303 304 304 303 302 303 304 303 303 302 302 301 302 301 301 301 301 300 300 300 300 300 300 300 300 300 299 300
307 307 307 308 307 307 308 308 308 307 307 307 307 307 306 307 307 306 306 305 306 305 305 304 304 306 307 307 307 307 307 307 307 307 307 307 306 306 307 306 305 305 304 304 304 305 304 304 305 305 305 304 305 305 304 304 305 304 303 304 304 304 304 303 304 303 303 303 303 302 302 302 302 302 301 301 301 301 300 300 300 300 300 300 301 301 300
Wind_Speed
4 3 4 3 3 3 4 0 2 9 10 11 14 13 13 6 9 8 6 9 9 6 11 13 12 12 11 10 10 9 8 8 8 8 9 10 11 11 11 10 9 9 8 7 7 6 6 6 7 7 7 8 8 9 9 9 9 10 9 9 10 10 9 9 8 7 6 5 5 6 6 5 6 7 6 6 5 6 6 7 7 8 8 8 7 7 6
6 6 5 4 6 6 6 5 4 1 6 8 10 10 5 8 4 2 5 5 4 3 9 11 12 10 11 10 8 8 8 9 9 10 10 10 11 11 11 11 10 8 7 6 6 5 7 7 7 8 8 8 10 10 10 9 9 9 7 9 10 10 9 8 8 7 7 6 6 6 6 7 7 7 6 6 7 7 7 7 6 6 6 6 7 7 7
6 6 6 5 5 7 8 10 9 7 1 3 1 2 4 4 8 5 4 7 4 5 8 10 11 9 9 9 9 10 9 8 9 9 10 9 8 9 9 8 8 9 10 8 7 7 7 7 9 8 8 9 10 11 10 9 9 8 8 9 8 7 7 7 6 6 6 7 7 7 6 6 6 6 7 6 6 6 6 6 5 5 6 7 8 9 8
7 4 4 6 5 5 8 11 12 10 7 1 1 2 3 4 3 5 5 6 5 7 9 11 11 10 11 11 10 9 8 9 8 9 8 9 7 7 7 7 7 6 7 7 8 8 8 7 9 9 8 9 11 10 10 10 8 8 7 7 8 7 7 5 5 5 5 5 6 7 7 6 7 6 5 6 6 7 7 8 7 7 7 7 7 7 7
1 3 1 3 5 6 4 9 9 9 4 5 3 1 0 3 5 5 4 3 6 8 9 11 11 11 11 11 9 8 9 9 9 7 7 8 7 6 7 7 6 7 7 6 5 7 8 8 9 8 10 10 9 9 8 8 9 9 8 7 6 6 6 6 6 6 6 6 6 6 5 5 5 6 7 7 8 8 8 7 7 8 8 8 7 6 7
4 2 3 2 5 9 2 6 5 6 7 6 6 5 6 4 4 6 3 4 2 8 10 11 12 11 10 9 9 7 8 9 10 9 8 8 8 8 9 9 10 9 9 9 8 10 10 9 9 9 8 6 7 7 7 8 9 8 8 6 5 6 5 4 6 7 7 8 8 8 8 7 6 5 6 8 7 7 7 7 7 7 7 7 6 6 5
9 5 5 5 8 3 6 4 6 5 4 6 6 5 3 5 3 5 4 3 3 5 6 9 10 10 9 8 8 8 8 8 9 9 10 10 10 10 10 11 10 11 12 11 9 11 9 7 7 8 8 7 8 10 9 9 9 9 8 8 7 7 6 7 6 5 6 6 5 5 6 7 7 7 7 6 6 5 6 6 7 7 7 7 6 7 6
4 7 5 8 4 4 3 4 8 8 2 6 7 4 5 3 6 5 4 4 4 3 5 8 12 10 9 9 7 8 8 8 9 10 9 10 10 10 11 12 12 12 12 11 11 11 9 9 8 9 8 7 8 8 8 8 8 8 8 7 7 7 8 8 8 7 6 6 5 6 6 5 5 5 4 4 4 3 1 2 3 4 5 6 7 7 7
8 8 9 4 4 6 5 1 7 10 8 9 8 3 7 9 5 5 3 2 3 5 6 10 10 10 10 9 7 6 7 7 7 10 10 11 11 13 13 12 13 13 12 13 13 11 9 9 8 9 8 7 8 9 9 8 8 7 8 8 8 8 8 8 7 6 7 7 6 6 6 7 7 6 6 5 4 3 4 2 2 1 1 1 1 4 5
5 9 10 7 5 9 4 5 5 7 7 7 6 4 6 10 8 5 2 2 3 6 9 10 12 12 11 9 7 6 6 7 10 11 13 14 14 14 15 15 14 12 12 11 10 10 11 11 10 8 8 7 8 9 8 7 8 9 9 8 7 8 8 8 8 7 6 6 6 6 6 7 7 6 6 5 7 5 5 5 6 6 5 4 5 6 7
8 8 10 9 8 2 4 7 10 10 7 8 2 6 3 8 9 6 1 3 2 6 10 11 11 10 9 8 8 6 7 12 12 14 14 13 13 13 13 13 13 14 13 13 12 10 11 11 9 10 10 10 9 9 9 8 7 9 9 7 7 7 8 8 8 7 6 6 6 6 6 6 7 8 9 7 6 6 6 6 7 6 6 4 5 6 6
7 8 8 7 2 5 7 10 10 10 7 4 5 6 4 7 11 8 4 1 5 8 10 11 9 9 6 9 9 10 9 11 13 13 13 12 12 12 12 12 13 13 13 13 14 13 11 10 11 10 11 10 11 10 9 8 9 8 7 6 5 6 6 6 7 7 7 7 7 7 7 7 6 7 7 7 7 6 6 6 6 5 6 5 5 4 5
3 3 6 3 6 5 10 11 11 8 3 4 7 3 4 10 10 8 5 1 2 7 10 8 8 1 5 7 14 14 14 13 12 11 12 13 13 12 13 13 13 12 11 11 12 12 10 11 10 10 9 10 10 10 10 10 9 8 6 5 5 5 6 7 7 8 7 8 8 7 6 6 6 6 5 6 6 6 6 5 5 5 6 5 4 4 4
3 5 8 3 8 4 9 11 8 7 8 4 2 5 6 8 9 7 6 1 3 6 7 7 3 7 12 15 14 14 14 15 16 15 15 15 14 13 13 13 12 11 11 11 11 10 9 9 9 8 8 8 8 8 9 10 9 7 6 5 5 4 5 6 6 7 7 8 7 7 6 6 6 6 5 6 6 6 5 6 6 5 4 3 4 4 5
3 2 6 7 4 7 11 16 6 10 5 5 5 8 8 7 7 8 7 2 3 4 8 5 7 11 12 11 12 12 13 13 13 15 15 15 15 15 14 12 12 12 12 11 11 11 9 9 8 8 9 9 8 8 8 8 7 6 6 6 6 4 5 6 6 6 6 5 5 5 6 6 6 6 5 5 5 5 5 6 6 6 5 4 4 3 2
4 3 1 2 6 5 9 10 6 7 6 7 8 7 7 7 6 5 4 2 2 5 6 7 6 10 11 10 10 9 10 13 13 13 12 13 13 14 14 13 13 12 11 10 10 9 9 8 8 8 8 8 8 8 7 5 5 5 5 5 5 4 4 5 4 5 5 5 4 4 5 4 5 4 4 4 3 3 3 3 4 4 3 2 2 3 3
5 5 4 5 4 3 5 6 5 5 7 7 7 6 7 7 6 7 5 3 2 1 4 7 9 10 8 7 6 7 6 8 10 11 11 11 11 11 12 12 11 10 10 11 10 10 8 9 7 7 8 9 10 9 6 5 5 4 4 4 4 4 4 4 3 3 3 3 4 4 4 3 3 3 3 3 3 2 2 2 2 2 2 2 2 2 2
6 8 6 3 4 5 5 5 5 6 7 8 7 7 6 7 7 6 6 6 1 2 6 10 8 8 9 11 8 8 5 6 7 7 6 7 7 8 8 8 8 8 9 9 10 10 9 8 8 7 7 7 9 8 6 6 5 5 4 4 4 4 4 3 3 3 4 4 3 3 3 2 2 2 2 2 2 1 1 1 1 1 1 2 1 2 2
5 3 4 5 5 5 6 6 7 7 8 9 8 8 7 6 7 7 6 6 4 3 8 10 10 9 11 11 9 10 8 6 7 8 8 7 7 7 6 6 6 6 7 7 8 9 9 7 7 7 7 7 7 6 5 5 5 5 5 5 4 4 3 3 2 1 2 3 4 3 3 2 3 2 3 3 2 1 1 1 1 1 1 1 1 2 2
2 6 5 5 5 6 7 6 6 8 9 10 10 8 7 7 7 8 6 4 6 6 7 10 11 9 7 7 8 7 6 9 10 9 9 9 8 7 7 6 5 5 6 7 7 7 7 6 6 6 5 5 5 4 4 4 5 4 4 3 3 3 3 2 2 2 2 3 1 3 3 3 3 3 2 2 2 1 2 1 0 1 1 1 1 0 1
7 8 6 4 5 7 8 9 8 8 8 8 10 10 10 9 9 9 9 9 7 5 7 11 13 14 12 11 10 8 5 8 9 8 9 10 8 5 6 5 4 4 5 6 7 7 6 5 5 5 4 4 4 4 3 4 4 4 4 3 2 2 2 2 2 1 2 4 3 2 4 2 4 7 6 3 2 3 6 6 7 5 2 2 1 0 1
5 3 5 1 4 4 6 7 8 8 8 9 9 10 11 12 10 8 7 8 7 5 6 7 9 12 12 12 13 12 10 8 7 9 5 6 6 6 4 3 3 4 6 6 7 7 6 5 4 4 4 4 3 3 3 3 3 4 4 4 3 2 2 2 2 1 1 1 1 1 3 4 4 5 10 12 10 6 5 7 8 8 7 5 6 5 3
3 4 5 3 5 6 6 5 5 6 6 7 9 10 10 10 10 9 7 6 5 6 4 2 5 7 8 13 13 12 9 10 11 12 10 9 7 6 3 3 3 5 5 5 6 7 6 5 5 4 4 3 3 3 3 3 2 3 2 2 2 3 2 2 2 1 1 1 2 1 0 2 3 4 4 6 11 12 9 5 6 6 7 7 9 8 7
8 5 5 4 4 5 5 5 4 5 6 5 6 7 7 8 8 8 8 7 5 4 3 3 2 3 6 8 11 12 11 9 7 8 9 8 8 7 7 7 6 6 6 5 6 7 6 5 5 4 4 4 3 3 3 2 2 2 1 1 1 2 3 4 2 1 2 2 2 2 2 2 3 4 3 5 5 7 8 6 6 6 6 7 7 7 10
4 5 4 4 4 4 4 4 4 5 5 6 6 7 7 7 7 7 7 6 6 5 4 3 1 0 3 6 7 8 10 10 8 9 10 9 8 8 9 9 9 8 8 7 6 6 6 5 5 5 5 4 4 3 3 2 1 1 1 1 1 1 2 1 2 1 1 2 2 3 3 3 3 3 3 4 4 5 3 5 6 6 6 7 7 7 9
5 4 3 3 2 3 2 3 5 6 6 5 5 6 5 5 6 5 4 4 4 5 4 3 3 1 1 3 5 6 8 9 10 10 9 9 9 8 8 9 9 7 7 8 7 8 7 8 7 6 6 6 5 4 4 3 2 2 2 1 1 1 1 1 1 0 0 1 1 1 2 2 2 2 3 2 3 3 6 5 3 2 3 3 7 8 6
3 2 1 3 3 3 4 4 4 5 5 5 6 5 5 6 4 3 2 2 3 3 3 3 3 3 3 3 3 4 7 9 10 9 9 10 11 11 10 8 9 10 10 9 9 9 9 9 8 8 7 6 6 4 3 3 3 4 4 3 3 3 6 4 1 1 0 1 1 1 2 2 3 3 2 2 3 4 4 4 4 5 5 4 3 1 3
2 2 2 4 2 1 3 3 3 3 3 4 4 5 5 4 2 3 4 3 1 0 0 1 1 3 4 5 6 6 6 9 10 10 11 12 11 10 9 9 9 10 9 9 9 10 10 10 9 9 8 7 7 6 5 5 4 4 4 3 3 4 5 3 2 1 1 2 1 2 2 3 3 3 3 3 4 4 4 4 5 5 5 4 5 6 7
3 2 2 3 4 3 2 1 1 2 3 3 3 3 4 4 5 4 3 3 3 2 1 1 1 2 1 4 6 7 8 8 10 11 11 9 9 10 10 10 11 11 9 9 9 10 10 10 10 9 9 8 8 7 6 6 5 5 4 4 3 3 3 2 1 1 2 2 3 2 3 4 4 4 5 5 5 5 4 5 5 5 5 4 4 6 5
4 3 3 2 2 2 2 2 1 2 3 4 5 5 4 6 5 4 3 3 3 3 3 2 2 2 2 3 3 4 7 9 9 10 11 12 11 10 10 9 9 10 9 9 9 10 10 10 10 10 9 9 9 8 7 6 5 5 4 3 2 2 3 3 2 2 2 3 3 2 4 5 5 5 5 5 5 6 6 6 5 5 5 6 5 6 5
5 5 4 3 3 2 2 2 0 0 1 3 4 4 4 5 5 5 3 3 3 3 2 3 2 1 1 2 2 3 3 2 5 7 8 9 9 9 9 9 9 9 9 9 10 10 10 10 10 9 9 9 8 8 7 6 5 5 4 4 4 7 7 4 2 2 3 4 4 5 5 5 5 5 6 6 6 6 6 6 6 6 6 6 6 6 5
7 6 6 5 4 3 3 2 1 1 2 2 4 4 4 4 5 6 6 4 3 4 5 6 5 3 2 1 1 2 3 4 3 4 5 5 6 7 8 9 10 10 9 9 9 10 10 10 10 8 9 9 8 7 6 6 6 5 5 4 4 6 6 5 5 4 4 3 3 3 3 4 4 4 5 6 6 6 6 5 6 6 6 6 6 6 5
7 7 7 6 5 4 3 1 2 3 3 4 5 4 5 5 5 6 6 6 5 4 5 6 6 5 3 2 2 3 3 3 4 4 4 5 6 6 6 6 7 9 9 8 8 9 11 11 11 10 10 10 9 8 7 6 5 5 4 5 4 4 7 5 2 2 4 4 4 4 3 3 4 4 5 5 5 5 5 5 6 6 6 6 5 4 5
7 4 1 4 2 1 2 2 2 4 4 4 5 5 5 6 6 6 6 7 7 7 6 6 6 6 6 6 5 4 4 4 4 5 6 7 8 8 8 8 8 8 9 10 11 10 10 11 10 11 12 11 10 8 7 6 5 3 3 3 4 4 5 6 6 5 3 4 3 3 3 4 4 5 5 5 5 5 5 5 5 6 6 6 5 1 8
3 3 3 2 2 2 2 4 4 5 5 6 7 7 6 6 6 7 7 7 8 7 7 7 7 8 7 7 7 7 7 7 7 5 4 4 6 7 6 6 6 7 7 8 9 9 10 12 13 13 13 12 11 9 8 7 5 3 3 3 3 3 3 3 4 4 3 3 3 4 4 5 5 4 4 5 4 4 4 4 4 5 5 6 5 4 5
5 4 3 3 3 3 4 5 5 6 7 7 8 8 8 8 9 9 9 9 8 8 8 8 8 8 8 9 8 9 10 9 8 6 6 4 2 4 6 7 8 9 8 8 9 9 10 12 15 16 12 11 10 10 9 8 5 4 3 3 4 4 3 3 3 2 3 3 4 4 4 3 4 4 4 4 4 4 5 4 5 5 6 6 5 4 4
4 2 1 2 2 4 5 5 5 6 6 7 7 8 9 9 9 10 9 10 10 10 10 9 9 9 9 10 10 9 9 9 8 7 6 4 3 4 6 7 8 9 9 10 10 9 9 9 12 14 11 9 10 9 10 11 5 4 3 3 3 4 4 4 4 4 3 3 3 3 3 4 5 4 4 4 4 3 4 5 5 5 6 5 5 5 5
3 2 2 2 3 4 4 4 4 5 6 7 7 7 8 9 9 9 9 10 10 10 10 11 12 12 11 11 11 11 11 10 10 10 8 7 6 5 6 7 7 8 9 8 7 8 9 13 17 10 7 6 6 8 10 13 9 5 3 3 3 3 3 3 3 3 2 2 2 3 4 4 4 4 4 4 4 4 5 5 5 6 6 6 6 6 6
3 2 1 1 2 3 4 4 4 5 6 8 8 8 9 9 10 10 10 10 10 10 11 11 11 11 12 13 12 12 12 12 11 10 10 10 7 7 7 6 6 6 6 6 9 8 9 14 11 10 9 9 10 8 11 12 10 5 3 3 3 4 4 3 2 2 2 3 4 4 4 4 4 4 4 4 5 5 5 5 5 5 5 5 5 5 5
2 1 1 2 2 2 3 4 5 6 7 7 8 9 8 9 9 9 10 10 10 10 10 11 11 12 12 13 13 13 13 13 12 12 12 11 10 9 8 8 6 6 3 9 10 9 13 18 15 9 8 9 8 8 9 9 8 5 5 5 5 5 4 3 3 4 4 4 4 4 5 5 5 5 4 4 4 4 4 4 4 5 5 5 5 5 5
2 1 1 2 3 3 4 5 6 7 6 7 7 8 8 8 8 9 10 10 10 10 11 11 11 11 13 13 13 13 13 12 13 13 11 10 11 11 10 10 6 5 7 8 8 9 15 15 12 10 9 8 8 8 8 11 6 4 5 6 6 6 5 5 5 4 4 4 3 4 3 2 2 2 3 3 3 3 4 5 5 4 4 4 4 4 4
2 1 1 3 3 3 4 5 6 6 6 6 7 8 8 8 9 9 9 9 9 10 10 10 12 12 12 12 11 12 12 11 10 10 9 10 10 9 10 8 6 6 8 9 10 14 13 13 10 9 10 9 8 12 11 9 7 6 6 6 6 6 5 5 4 3 2 2 3 2 2 3 2 2 2 3 4 4 3 3 2 2 3 3 4 4 4
2 2 2 2 2 3 4 5 6 7 7 7 7 7 7 8 8 9 9 9 9 9 10 10 11 12 12 12 12 12 10 11 10 8 7 6 6 6 6 3 4 6 12 10 13 12 12 11 9 8 11 10 9 14 12 7 6 6 6 6 5 5 5 5 4 4 4 4 3 3 3 3 3 3 3 3 4 3 3 3 3 3 3 3 4 4 4
2 2 1 1 2 3 4 5 6 6 7 7 7 7 8 8 8 8 8 9 9 9 10 10 10 10 10 10 10 9 9 9 9 8 7 6 5 4 3 3 5 9 15 11 11 11 11 9 8 13 16 15 17 15 8 7 7 6 6 6 6 5 5 4 4 4 4 4 3 3 3 2 3 3 2 2 3 3 2 2 3 3 3 3 3 3 4
2 1 1 2 3 4 4 5 6 7 7 8 8 8 7 8 8 7 7 8 8 9 9 10 10 9 8 8 8 8 7 4 3 6 8 7 7 5 4 3 6 9 8 7 6 8 9 9 12 15 13 16 15 13 7 7 7 7 7 6 6 5 5 5 4 4 4 4 3 3 2 3 3 2 3 1 2 4 3 2 3 3 3 4 4 4 4
3 2 2 2 3 3 4 6 6 6 6 7 8 7 6 6 7 7 7 8 8 9 9 9 8 8 7 7 7 7 7 7 8 7 5 6 5 3 6 6 6 9 13 11 5 7 9 17 18 16 17 16 14 9 7 8 6 7 6 6 5 5 5 5 5 4 4 4 4 4 4 4 3 3 4 4 3 3 2 2 3 4 4 4 4 4 4
3 3 2 2 3 4 5 5 5 6 7 6 6 6 5 6 7 7 7 8 9 9 8 7 7 6 6 6 6 6 6 6 5 4 4 3 2 2 8 9 13 16 14 9 8 7 9 12 14 17 16 16 14 7 7 6 6 6 6 6 6 5 5 5 5 4 4 4 3 2 1 3 3 3 2 3 3 3 4 4 5 4 4 3 4 4 5
3 2 2 2 3 5 5 5 4 4 4 5 6 6 6 6 7 7 7 7 7 6 6 4 3 4 5 6 6 6 6 6 4 2 2 3 2 5 7 8 10 15 16 14 14 12 16 15 15 14 13 12 6 1 1 3 5 6 6 5 5 5 5 5 4 4 4 3 4 4 5 5 4 4 4 4 4 4 4 4 4 5 5 4 4 4 5
2 1 1 1 3 4 4 4 4 3 3 4 5 5 6 6 6 5 5 5 4 3 2 2 2 3 3 3 3 2 1 0 2 3 3 4 5 7 9 12 15 13 9 8 11 10 14 17 17 15 15 13 8 9 8 7 7 6 6 6 5 5 5 4 4 4 4 4 4 5 5 5 4 4 4 4 5 5 4 5 5 5 5 5 5 5 5
2 2 1 1 2 3 4 3 2 3 4 4 4 5 5 4 3 2 2 3 3 3 2 1 1 1 1 1 2 2 3 3 4 4 5 6 8 8 10 11 10 12 11 7 9 9 14 17 16 16 13 9 7 7 7 7 6 6 6 6 5 5 5 3 3 2 3 3 4 4 5 5 5 5 6 6 6 5 5 5 6 5 2 3 6 6 6
2 2 1 1 2 2 2 2 3 2 2 3 4 4 4 3 2 2 2 2 2 2 2 2 2 2 1 1 3 4 6 6 6 7 8 7 8 9 9 10 11 10 10 9 9 10 11 11 10 11 10 8 7 7 7 6 6 6 6 6 6 5 6 6 6 6 6 4 4 4 5 5 5 5 6 6 7 7 7 6 7 7 7 7 7 7 7
3 2 3 3 3 2 2 1 1 0 0 1 3 4 3 2 2 3 3 2 2 3 3 4 4 4 4 5 5 6 6 7 8 8 8 9 9 8 10 11 9 10 10 9 8 9 9 9 9 10 10 8 7 7 7 8 7 6 7 7 6 6 6 6 7 6 6 6 6 6 6 6 6 6 7 7 7 7 7 8 8 8 7 7 7 7 7
Wind_Direction
82 87 92 108 114 95 126 152 188 205 209 210 226 230 236 232 227 251 164 184 223 189 172 168 173 172 160 177 179 175 170 165 158 160 170 184 187 180 175 175 177 181 187 185 178 174 185 176 177 183 177 181 187 190 191 191 181 188 185 175 181 185 178 179 178 178 176 186 199 207 217 216 221 221 221 219 212 210 212 226 225 226 225 233 235 232 224
84 90 114 149 141 120 103 97 94 47 209 218 229 245 252 234 267 286 212 214 229 120 156 160 158 161 163 165 160 161 168 176 175 182 187 187 188 182 180 177 172 177 175 174 164 161 182 179 185 190 175 172 181 182 187 187 183 178 178 182 183 188 181 181 177 169 174 189 204 211 214 217 221 218 216 214 212 214 217 218 225 231 236 233 235 231 231
84 98 124 138 146 138 100 69 49 40 117 185 185 227 193 230 225 255 261 213 185 88 121 136 134 144 155 152 160 169 169 174 179 180 180 176 181 181 176 168 172 178 182 176 169 168 172 181 185 185 179 169 170 171 175 172 156 154 177 179 179 176 173 159 181 187 189 192 199 212 212 220 221 225 226 219 219 220 219 218 227 212 231 232 230 234 231
121 85 117 127 135 133 99 49 29 21 13 105 85 216 35 266 218 222 198 208 193 119 133 132 137 150 160 155 157 157 157 166 168 171 166 159 162 160 159 172 174 154 158 172 172 166 173 156 141 139 140 149 163 163 171 161 151 164 169 173 174 169 157 143 154 169 179 187 201 213 216 217 220 220 227 233 232 229 228 222 216 227 222 231 239 243 235
204 75 336 126 171 187 161 33 15 355 359 7 325 167 63 323 323 235 235 18 24 133 142 144 146 156 157 155 155 150 151 160 164 153 137 144 153 146 127 132 136 136 138 139 154 150 136 138 143 134 141 149 152 156 145 130 156 169 174 170 158 166 160 167 179 187 182 187 188 197 213 227 236 227 224 227 233 231 234 238 234 227 229 230 222 230 246
215 356 337 294 220 209 169 46 10 10 14 6 353 16 3 40 352 40 28 34 103 147 160 154 152 158 160 152 152 160 160 157 139 138 142 136 129 126 119 111 108 105 100 78 66 72 74 62 74 86 83 77 62 63 90 114 123 125 128 118 108 95 100 130 171 183 193 198 202 194 192 191 194 211 223 228 228 230 235 231 235 237 232 228 225 225 232
215 254 265 231 228 134 89 82 43 11 1 358 352 11 17 30 31 17 39 59 174 150 158 151 153 146 151 155 152 160 155 159 145 143 141 135 131 125 119 112 111 111 107 96 89 92 79 83 85 86 85 87 96 94 87 93 104 108 113 110 104 112 109 105 102 106 130 134 134 155 175 176 180 188 197 199 213 220 222 224 221 221 228 227 220 219 216
173 228 210 234 173 72 122 51 23 5 262 353 306 189 65 53 12 4 17 67 131 152 175 156 136 147 132 130 137 147 152 157 152 147 144 140 136 126 115 113 109 106 106 103 100 98 94 83 74 79 79 78 81 84 84 77 73 70 78 87 96 109 109 108 108 100 93 101 108 122 128 135 144 147 148 152 161 155 192 234 222 216 213 225 218 218 217
234 219 211 209 122 158 89 53 25 6 5 346 350 17 57 12 358 353 19 72 130 178 150 133 142 132 135 135 128 139 141 146 144 143 141 139 124 117 113 107 107 107 109 104 103 100 94 88 84 82 85 81 82 79 78 80 79 75 69 63 67 86 94 96 102 107 119 120 121 113 120 121 124 129 135 139 134 148 159 155 86 54 136 78 257 210 193
233 229 216 197 185 223 100 55 5 349 339 328 297 290 94 16 9 349 18 81 146 164 140 144 147 153 149 148 134 130 121 120 114 125 128 120 117 115 115 116 112 110 106 101 100 108 108 96 92 97 103 96 88 84 77 83 90 81 68 61 63 70 74 76 85 98 112 122 127 134 138 137 137 130 119 99 92 98 91 90 75 55 41 47 52 51 71
214 223 228 213 221 110 29 9 348 346 333 304 289 242 103 25 2 2 356 67 148 159 161 149 159 178 174 157 136 123 124 117 121 125 123 112 112 115 118 124 124 117 115 115 108 97 97 100 103 106 107 105 98 93 93 85 72 78 70 48 52 61 68 77 91 96 101 109 115 120 122 124 126 124 114 109 107 105 101 93 87 85 82 60 59 62 70
216 224 227 222 32 82 21 353 343 344 6 309 242 221 139 11 346 335 352 96 165 166 155 169 187 195 190 152 142 143 137 123 125 131 126 120 124 129 133 131 124 121 127 130 127 126 121 118 117 115 114 108 101 98 95 89 78 68 73 73 62 75 83 83 95 100 94 90 93 101 100 95 88 95 106 120 128 123 117 115 112 104 88 72 66 62 68
158 251 214 136 115 71 2 342 331 337 22 293 240 255 23 347 337 322 314 97 153 157 160 181 193 145 324 140 135 141 138 132 126 124 130 135 135 136 131 122 126 129 130 128 122 118 119 125 122 116 114 110 105 104 102 92 85 83 75 68 73 81 87 91 90 88 91 90 88 87 90 99 104 102 104 105 102 99 100 98 101 107 111 129 129 125 108
233 213 220 172 75 37 326 330 321 324 267 227 27 26 321 319 324 324 307 10 148 161 184 181 170 93 87 109 138 142 146 140 137 138 136 138 137 133 123 131 135 128 119 112 109 105 107 107 108 107 100 96 100 102 99 96 99 99 102 100 86 78 85 86 87 90 96 105 105 93 84 86 89 89 91 106 108 115 115 112 110 98 88 109 119 115 124
230 239 221 201 191 48 357 325 260 11 346 40 330 327 331 336 335 315 302 287 142 189 173 146 127 110 105 117 140 148 145 142 144 144 147 143 141 138 137 136 129 125 122 122 120 119 115 110 110 112 109 104 100 96 97 101 109 112 109 107 107 107 101 95 90 91 90 94 98 107 110 97 95 94 99 101 97 101 114 116 116 119 122 122 115 101 82
303 214 105 52 23 358 1 357 40 10 9 331 327 322 333 342 341 342 309 337 107 182 166 133 132 117 136 152 151 140 147 143 141 139 140 145 143 144 143 140 137 129 126 126 122 113 107 109 112 114 113 109 104 98 95 103 106 108 111 107 113 112 102 95 103 103 101 97 95 97 96 97 99 103 97 96 109 130 125 125 128 121 121 137 138 130 115
3 43 76 74 48 26 34 27 37 15 355 354 335 330 317 332 357 349 309 29 351 203 179 133 120 116 130 118 102 123 138 144 144 145 143 143 142 141 140 137 137 139 131 126 120 116 112 110 109 113 118 120 119 113 114 113 106 109 120 129 134 123 107 107 108 107 105 109 110 109 118 124 125 121 122 151 145 151 161 145 128 116 120 112 104 99 116
99 72 58 94 66 42 55 59 37 26 18 19 4 6 0 11 349 345 4 345 347 179 138 118 112 128 127 120 107 98 101 108 93 108 119 124 120 118 121 126 134 123 119 115 111 107 105 106 108 109 114 118 116 115 123 121 118 114 106 100 96 96 107 113 126 145 152 139 136 137 129 131 124 126 131 136 115 130 105 128 133 127 166 129 142 129 134
210 106 99 74 62 49 43 54 54 48 37 31 20 25 19 14 4 19 24 34 34 70 117 118 111 108 119 125 124 116 116 112 114 128 123 114 118 118 108 99 110 111 108 108 104 101 96 90 97 102 104 104 105 113 118 124 115 109 108 104 102 105 112 126 121 90 144 159 151 145 167 154 151 160 147 141 120 133 168 142 114 192 164 151 179 140 147
360 99 114 101 84 74 53 39 41 39 38 36 35 31 33 29 34 33 41 61 92 120 123 115 120 135 151 122 121 121 121 133 106 107 127 130 113 106 105 104 99 100 101 103 101 94 87 82 79 83 92 100 110 113 104 94 98 106 108 113 117 119 119 123 132 148 138 46 293 156 157 174 152 145 145 137 120 111 74 60 52 102 337 28 3 358 145
103 124 137 129 111 88 72 62 53 43 35 38 40 38 39 39 43 50 53 52 65 75 122 119 117 110 103 100 84 74 82 104 115 111 98 103 97 97 113 108 107 106 113 108 101 98 93 83 76 72 75 82 95 104 107 105 116 116 105 99 95 112 110 103 92 105 147 177 193 151 142 164 85 34 5 18 90 91 49 15 9 355 1 146 161 133 12
182 106 97 151 233 138 89 59 42 34 34 41 44 42 41 40 41 38 55 60 49 80 122 143 143 147 154 156 151 147 135 119 111 112 117 92 103 107 85 82 91 107 108 120 126 120 108 95 88 83 74 73 73 89 91 103 119 123 124 123 121 116 107 88 102 152 161 133 95 170 170 145 122 98 68 56 33 17 97 56 48 34 24 23 9 356 333
65 87 90 61 71 77 59 58 43 38 27 38 43 41 41 41 42 40 39 50 72 68 59 114 185 175 165 167 170 166 165 167 158 158 163 159 155 150 126 106 143 135 130 142 141 127 121 122 116 116 110 99 91 88 86 95 113 110 136 136 133 129 132 114 47 51 115 104 141 193 106 142 148 156 161 75 51 47 56 69 45 39 51 46 38 32 7
101 81 86 49 34 62 76 62 58 49 24 16 39 39 41 40 37 40 48 48 52 55 73 66 24 180 195 186 181 181 174 170 160 159 163 166 164 158 164 178 190 158 148 175 155 131 128 131 129 131 128 121 104 101 94 93 100 108 109 152 139 113 116 118 137 209 126 131 152 167 186 179 188 190 183 151 116 47 36 59 87 80 74 61 57 57 47
106 95 86 70 65 75 81 93 78 64 47 18 25 27 21 13 23 23 40 52 52 63 68 75 84 18 173 169 176 173 175 170 170 165 164 165 169 175 181 189 193 184 176 173 155 143 147 148 153 153 144 139 138 115 105 83 61 85 61 9 77 84 80 93 111 93 166 147 165 187 177 190 210 224 228 225 184 146 102 62 32 45 59 74 76 66 57
95 104 89 83 119 92 104 152 98 49 41 30 27 27 27 22 6 341 23 28 46 47 60 77 105 124 196 177 178 177 177 181 168 164 167 177 185 189 192 199 195 187 182 169 157 159 163 169 169 169 163 159 152 152 147 136 142 124 124 75 54 38 42 41 358 54 128 157 203 196 222 220 224 225 235 244 270 202 154 158 144 84 70 86 106 94 66
86 83 188 186 178 118 49 8 41 29 25 22 15 11 16 9 359 343 1 350 18 13 41 68 83 124 161 185 213 200 201 185 179 186 186 185 189 196 199 201 199 195 185 168 165 168 174 174 177 177 173 164 155 160 143 136 140 150 142 149 140 60 12 343 180 169 295 257 243 251 233 232 227 241 233 255 251 241 257 238 218 184 172 167 192 133 116
129 112 300 286 211 117 73 65 39 22 27 19 9 0 359 342 344 351 3 5 14 14 310 346 32 129 160 171 187 190 198 198 201 194 194 196 197 195 199 202 203 201 191 177 169 170 179 183 184 181 172 165 165 168 159 153 153 154 149 152 144 132 151 218 229 178 204 231 292 270 259 260 257 259 263 244 237 243 246 259 262 245 236 200 162 159 154
148 131 84 59 62 68 78 104 84 39 18 18 0 356 345 343 341 326 320 345 353 336 296 216 263 288 270 166 194 192 198 202 209 209 202 197 200 199 198 202 200 199 199 183 173 175 184 187 190 184 173 167 171 172 165 160 162 161 158 166 168 162 172 167 215 192 192 217 226 251 301 268 249 252 253 248 262 261 248 246 248 254 265 266 245 157 175
154 146 147 119 123 136 152 115 59 12 16 8 351 346 352 335 326 342 345 310 335 341 3 3 280 245 250 239 216 211 211 210 203 208 213 211 209 205 203 196 193 195 194 189 184 182 190 191 193 192 180 173 175 172 169 163 165 158 161 167 167 167 179 158 185 232 252 229 191 96 252 237 247 251 246 248 245 252 260 251 251 259 257 252 254 268 252
150 152 145 144 148 154 148 120 126 225 337 349 340 326 339 330 325 319 328 334 291 292 308 311 338 311 264 256 243 248 270 234 202 198 204 205 201 190 186 184 194 196 196 194 192 188 190 198 201 196 182 179 173 174 169 165 163 159 163 168 157 67 58 61 321 259 207 225 212 214 223 234 239 240 248 248 239 235 238 244 247 252 258 262 260 257 261
159 164 168 174 177 184 165 173 217 286 304 304 300 306 315 311 306 301 305 306 323 302 291 285 279 282 294 292 258 238 239 239 226 210 194 173 191 190 199 201 205 205 200 198 198 196 193 200 204 186 179 181 168 172 171 173 166 184 178 176 167 171 162 199 209 205 255 234 242 236 237 258 256 255 251 254 259 254 249 244 246 248 252 257 261 261 275
183 178 187 187 186 198 211 212 278 288 289 287 289 295 291 287 282 283 285 294 292 287 280 275 273 269 272 270 254 242 232 215 215 207 208 187 179 179 194 206 212 207 205 200 199 200 206 203 203 186 183 172 170 168 171 172 184 195 181 189 200 156 150 176 342 241 208 239 229 226 232 228 252 252 251 262 259 261 257 256 252 247 252 258 261 273 71
205 222 168 148 193 209 242 264 266 271 274 267 266 270 270 276 275 276 275 272 274 273 268 268 273 271 266 263 263 259 243 235 220 218 218 213 211 209 198 196 203 212 218 208 199 195 197 202 194 188 182 170 166 168 168 169 181 203 188 199 194 177 192 172 174 217 223 219 222 189 232 250 252 252 251 235 240 241 250 259 258 255 254 251 252 178 102
166 120 132 146 172 212 245 266 278 284 285 284 280 275 274 273 271 270 271 273 271 272 275 275 269 265 258 259 258 258 254 253 257 259 257 240 229 218 214 208 205 196 203 216 213 207 200 196 188 184 172 169 168 169 163 172 177 192 179 208 209 207 188 195 198 208 216 216 226 231 224 229 231 238 260 265 254 255 251 247 256 260 259 258 258 243 135
174 171 174 178 209 243 260 271 278 281 279 276 278 280 280 278 278 278 273 266 266 263 262 261 258 258 258 257 255 254 255 255 254 256 260 257 223 199 212 222 220 218 209 202 204 205 199 198 181 171 167 165 170 169 163 164 171 182 180 209 207 211 204 208 211 203 208 237 230 229 236 254 298 267 251 234 236 251 251 251 249 248 252 257 265 282 262
176 182 204 241 258 264 278 281 279 277 277 278 279 278 277 277 277 275 274 272 271 271 267 263 260 256 253 253 255 258 260 261 259 251 256 254 226 198 206 215 221 226 219 224 216 207 188 173 159 157 160 162 164 156 149 147 151 154 170 213 231 234 217 206 193 196 181 191 220 227 239 228 218 220 230 240 248 247 241 244 246 252 259 260 260 258 256
166 201 252 271 285 287 288 284 280 275 274 276 275 275 275 278 276 276 274 274 272 268 269 266 262 261 260 262 261 258 257 257 255 253 252 250 240 230 215 219 220 220 226 229 192 192 197 169 155 153 138 136 135 142 148 150 144 144 168 215 237 226 227 224 180 186 186 196 188 218 211 219 228 224 221 230 239 243 245 252 257 261 259 263 264 265 264
187 191 224 268 289 284 283 287 290 292 290 288 290 290 290 287 282 279 276 272 272 271 266 262 262 261 257 254 253 256 257 256 255 254 254 252 245 235 239 230 239 233 237 202 162 186 173 169 161 156 152 147 147 149 154 149 146 145 160 210 213 233 220 209 186 160 168 179 198 211 218 223 229 236 245 240 240 240 246 253 270 272 267 262 260 260 260
179 199 252 273 281 293 305 300 297 295 295 293 289 289 288 285 281 277 274 272 269 267 265 263 260 257 255 254 255 256 254 254 254 256 254 252 246 243 245 239 236 245 227 159 172 190 170 172 173 160 147 144 141 144 155 151 162 161 170 189 206 209 203 186 165 175 185 214 211 215 235 230 227 235 237 241 241 247 260 253 239 242 247 249 252 259 264
169 195 226 272 289 288 288 292 295 298 296 292 290 287 286 282 281 278 272 273 275 272 269 266 262 260 258 259 260 258 258 258 260 260 259 252 249 245 248 246 215 196 172 178 195 159 154 170 175 158 148 146 140 141 145 158 168 189 184 189 194 193 184 179 184 189 193 199 213 224 217 226 188 218 231 234 241 236 231 234 239 244 245 254 262 265 266
149 160 267 264 270 283 298 301 300 298 297 297 292 289 284 280 275 274 276 275 275 273 274 270 269 268 271 266 264 262 262 266 265 259 252 251 248 251 242 248 208 186 166 198 152 145 164 174 168 151 147 151 151 155 154 160 183 187 191 188 195 183 180 166 179 189 195 188 198 204 194 214 209 176 182 217 226 234 241 247 246 240 250 252 252 252 255
162 219 234 250 277 294 302 303 302 301 300 296 293 291 289 286 282 281 278 277 274 274 272 271 269 261 256 257 257 258 256 251 247 245 241 241 237 244 259 279 158 154 157 181 163 165 168 173 154 142 142 143 144 144 154 172 186 182 181 178 179 176 174 171 169 170 175 186 195 202 196 198 185 185 205 220 225 220 218 220 229 237 253 251 255 257 266
178 197 199 296 324 324 312 304 302 301 296 297 305 303 295 288 283 281 280 280 279 276 274 272 269 270 266 258 256 253 250 248 240 226 231 227 210 199 201 238 189 155 166 176 167 171 168 159 143 138 140 139 141 152 163 175 175 174 169 165 165 169 157 161 164 175 172 181 183 191 189 187 205 191 207 227 244 226 229 252 276 254 253 256 267 273 274
165 134 45 9 335 313 306 304 301 299 302 304 296 290 288 285 284 284 286 286 283 281 277 273 269 265 264 262 260 254 254 249 276 266 237 224 225 202 160 182 151 149 167 167 158 147 155 142 133 137 135 140 151 169 172 170 176 164 159 157 156 153 155 161 162 166 167 169 175 185 176 190 205 214 220 202 338 308 277 258 257 272 271 267 265 262 267
140 114 78 18 328 317 310 304 299 297 293 291 291 285 283 291 292 291 287 283 280 280 280 277 269 264 265 265 257 255 255 258 246 243 262 277 288 272 157 179 177 168 138 119 112 135 136 130 133 137 148 160 165 186 180 173 165 152 152 151 151 153 161 158 163 167 163 173 170 187 182 202 218 248 258 257 224 245 270 329 290 265 254 262 267 276 278
122 103 63 22 351 341 326 308 299 286 285 287 294 305 311 304 299 296 296 291 283 281 283 279 269 268 263 259 257 246 244 238 239 261 284 287 283 198 146 162 141 130 129 134 143 135 126 136 145 153 157 163 176 187 170 170 160 148 152 158 161 177 182 173 179 185 189 204 190 225 313 293 268 216 215 244 251 243 233 230 240 256 257 256 258 256 254
105 90 47 17 354 341 331 311 282 284 307 316 323 313 310 308 304 298 292 284 279 283 287 280 275 273 267 250 236 243 244 247 234 160 180 197 198 142 133 125 137 143 135 117 112 123 134 136 140 156 165 169 195 299 160 170 179 176 169 173 181 179 180 184 195 199 208 195 183 213 210 210 230 247 245 247 255 249 247 246 246 243 250 250 249 253 261
116 65 25 330 328 326 328 319 305 308 331 337 316 322 322 315 306 300 297 293 295 294 301 323 290 257 236 240 263 244 158 212 183 174 178 181 170 150 133 141 144 135 132 142 146 149 152 155 164 169 167 177 181 176 178 184 186 181 173 177 181 183 188 189 194 199 210 211 212 229 237 236 233 236 242 254 267 273 266 254 252 249 244 243 248 256 263
160 187 223 302 324 327 331 296 298 349 339 336 335 331 333 326 311 345 319 321 356 358 3 34 15 33 278 148 166 143 145 147 143 157 164 156 149 149 145 149 150 149 142 144 142 144 160 171 177 179 178 185 184 178 180 181 172 188 185 189 195 187 192 190 153 196 227 212 222 227 233 245 246 241 252 259 261 254 250 250 254 242 224 286 274 273 266
181 212 247 283 294 315 306 296 307 329 348 349 334 343 334 317 350 354 355 14 46 63 61 84 83 77 75 147 164 141 135 128 124 130 132 141 139 139 153 145 142 144 148 157 154 153 157 172 175 178 184 192 186 184 180 188 187 185 200 197 197 219 176 185 217 202 212 228 229 223 235 243 246 249 246 247 251 254 253 250 248 250 242 244 243 248 256
207 198 212 237 258 259 257 187 179 86 355 298 352 354 356 353 25 64 70 58 62 94 97 100 98 103 125 136 134 133 133 130 135 140 139 140 145 148 149 150 146 148 159 157 159 164 170 171 173 182 193 195 191 188 177 184 206 203 198 212 213 213 218 212 209 223 219 212 226 240 239 243 248 245 245 248 253 256 254 251 250 249 247 248 250 251 255